Back to catalog

STARLINK-2495

AliveCommunicationsVLEO
NORAD 48325·PAYLOAD·🇺🇸 United States

Launched Apr 29, 2021 from Cape Canaveral Space Force Station

Loading…

Next Passes (next 24 hours)

TLE

FreshSource: CelesTrak SupGP

Epoch: Sep 14, 2026, 20:45 UTC

1 48325C 21036BB  26257.86506944 -.00002213  00000+0 -71147-4 0  2578
2 48325  53.1587 300.7925 0001282  83.5819  18.3689 15.31705651    16

Track STARLINK-2495 in real time with AllMySat

Download on the App Store